SCP
0 0 0 0 0 0 0 0 0 0 0 0 0 0 0 0 0 0 0 0 0 0 0 0 0 0 0 0 0 0 0 0 0 0 0 0 0 0
0 0 0 0 0 0 0 0 0 0 0 0 0 0 0 0 0 0 0 0 0 0 0 0 0 0 0 0 0 0 0 0 0 0 0 0 0 0
0 0 0 0 0 0 0 0 0 0 0 0 0 0 0 0 0 0 0 0 0 0 0 0 0 0 0 0 0 0 0 0 0 0 0 0 0 0
0 0 0 0 0 0 0 0 0 0 0 0 0 0 0 0 0 0 0 0 0 0 0 0 0 0 0 0 0 0 0 0 0 0 0 0 0 0
0 0 0 0 0 0 0 0 0 0 0 0 0 0 0 0 0 0 0 0 0 0 0 0 0 0 0 0 0 0 0 0 0 0 0 0 0 0
0 0 0 0 0 0 0 0 0 0 0 0 0 0 0 0 0 0 0 0 0 0 0 0 0 0 0 0 0 0 0 0 0 0 0 0 0 0
0 0 0 0 0 0 0 0 0 0 0 0 0 0 0 0 0 0 0 0 0 0 0 0 0 0 0 0 0 0 0 0 0 0 0 0 0 0
0 0 0 0 0 0 0 0 0 0 0 0 0 0 0 0 0 0 0 0 0 0 0 0 0 0 0 0 0 0 0 0 0 0 0 0 0 0
0 0 0 0 0 0 0 0 0 0 0 0 0 0 0 0 0 0 0 0 0 0 0 0 0 0 0 0 0 0 0 0 0 0 0 0 0 0
0 0 0 0 -0 -0 0 0 0 0 0 0 0 0 0 0 0 0 0 0 0 0 0 0 0 0 0 0 0 0 0 0 0 0 0 0 0 0
0 0 0 0 0 0 0 0 0 0 0 0 0 0 0 0 0 0 0 0 0 0 0 0 0 0 0 0 0 0 0 0 0 0 0 0 0 0
0 0 0 0 0 0 0 0 0 0 0 0 0 0 0 0 0 0 0 0 0 0 0 0 0 0 0 0 0 0 0 0 0 0 0 0 0 0
0 0 0 0 0 0 0 0 0 0 0 0 0 0 0 0 0 0 0 0 0 0 0 0 0 0 0 0 0 0 0 0 0 0 0 0 0 0
0 0 0 0 0 0 0 0 0 0 0 0 0 0 0 0 0 0 0 0 0 0 0 0 0 0 0 0 0 0 0 0 0 0 0 0 0 0
0 0 0 0 0 0 0 0 0 0 0 0 0 0 0 0 0 0 0 0 0 0 0 0 0 0 0 0 0 0 0 0 0 0 0 0 0 0
0 0 0 0 0 0 0 0 0 0 0 0 0 0 0 0 0 0 0 0 0 0 0 0 0 0 0 0 0 0 0 0 0 0 0 -0 0 0
0 0 0 0 0 0 0 0 0 0 0 0 0 0 0 0 0 0 0 0 0 0 0 0 0 0 0 0 0 0 0 0 0 0 0 0 0 0
0 0 0 0 0 0 0 0 0 0 0 0 0 0 0 0 0 0 0 0 0 0 0 0 0 0 0 0 0 0 0 0 0 0 0 0 0 0
0 0 0 0 0 0 0 0 0 0 0 0 0 0 0 0 0 0 0 0 0 0 0 0 0 0 0 0 0 0 0 0 0 0 0 0 0 0
0 0 0 0 0 0 0 0 0 0 0 0 0 0 0 0 0 0 0 0 0 0 0 0 0 0 0 0 0 0 0 0 0 0 0 0 0 0
0 0 0 0 0 0 0 0 0 0 0 0 0 0 0 0 0 0 0 0 0 0 0 0 0 0 0 0 0 0 0 0 0 0 0 0 0 0
0 0 0 0 0 0 0 0 0 0 0 0 0 0 0 0 0 0 0 0 0 0 0 0 0 0 0 0 0 0 0 0 0 0 0 0 0 0
0 0 0 0 0 0 0 0 0 0 0 0 0 0 0 0 0 0 0 0 0 0 0 0 0 0 0 0 0 0 0 0 0 0 0 0 0 0
Wind_Speed
6 6 6 5 5 5 5 5 6 10 10 6 4 4 5 5 7 6 6 12 16 18 18 18 18 18 18 19 19 20 20 19 19 18 18 17 17 16
5 7 7 5 5 5 5 5 5 7 10 7 5 6 6 7 10 7 7 14 15 16 16 16 16 16 17 18 18 19 19 19 17 17 17 16 16 16
6 7 8 7 6 5 5 6 6 6 10 9 6 5 6 7 7 5 6 6 7 13 15 15 15 15 16 16 16 16 16 14 13 12 13 12 12 12
7 7 8 7 7 6 6 7 6 6 7 10 7 6 6 6 6 6 7 6 6 11 13 14 14 14 14 13 13 13 12 11 11 10 10 9 9 8
7 7 8 7 8 6 6 6 6 6 6 7 8 6 5 6 6 6 7 5 6 8 10 11 12 13 13 12 11 10 8 6 5 4 5 5 4 4
7 7 8 8 8 8 7 7 6 6 6 6 7 6 5 5 4 5 6 4 5 6 7 9 10 12 12 12 9 6 5 4 2 1 2 3 2 3
8 8 8 10 12 9 7 7 6 6 6 6 6 6 5 4 4 4 5 5 5 4 4 5 6 6 6 7 6 5 6 5 4 5 5 6 5 3
8 8 8 9 10 13 14 12 10 8 7 6 6 6 7 5 4 4 4 5 5 3 4 5 4 5 4 3 5 6 7 8 8 8 7 7 7 7
7 7 7 7 9 7 9 11 10 12 12 8 7 8 7 6 5 5 4 4 5 4 4 5 4 4 4 4 7 7 8 8 9 9 9 8 8 8
6 7 7 7 7 7 6 6 6 6 7 6 5 6 6 5 5 5 4 4 3 3 2 3 4 3 4 3 6 7 8 8 9 9 9 9 9 8
6 6 6 6 9 10 6 5 6 5 5 6 6 6 7 7 5 2 2 2 3 4 2 2 2 3 3 3 4 8 8 9 9 9 9 9 9 8
4 5 7 8 9 8 5 4 5 5 4 4 4 5 4 4 5 2 2 2 2 3 2 1 2 2 2 3 3 4 4 7 9 9 10 10 9 5
4 4 4 9 10 9 7 4 5 6 4 3 3 2 3 2 2 2 1 1 1 2 2 1 1 1 1 1 3 3 3 3 4 5 7 10 10 7
3 3 4 9 9 9 7 6 7 6 2 2 2 2 2 2 2 2 3 2 1 1 2 1 0 1 2 2 2 3 3 3 3 4 4 7 8 10
3 6 8 9 9 7 7 7 6 2 1 1 1 2 2 1 1 2 3 3 4 4 3 3 3 2 2 2 1 2 3 3 4 4 4 4 4 4
4 6 8 8 6 6 5 4 2 1 1 1 1 1 1 1 1 1 2 2 3 4 5 6 5 4 3 3 2 2 2 2 3 4 4 4 4 4
4 3 3 3 3 3 2 2 2 2 1 1 1 1 1 1 1 2 2 2 3 3 3 4 5 5 5 3 3 3 3 3 3 3 3 4 4 4
5 3 3 3 3 2 2 2 2 2 2 1 1 1 1 1 2 2 2 2 3 3 3 2 2 3 4 5 5 2 2 2 3 3 3 3 4 4
3 2 2 2 2 2 2 2 2 2 1 1 1 1 1 1 2 2 2 2 3 3 2 2 2 3 4 3 4 5 2 2 3 3 3 3 2 3
2 2 2 2 2 1 1 1 1 1 1 1 1 1 1 1 2 2 2 2 2 3 3 3 3 2 2 1 1 3 5 2 2 2 3 2 2 3
3 2 2 2 1 1 1 1 1 1 1 1 1 2 1 2 2 2 2 3 3 3 3 2 2 3 2 2 3 3 4 5 3 1 2 2 3 3
3 2 2 2 1 1 1 1 1 1 1 1 1 2 1 1 2 2 2 2 3 3 3 2 2 2 2 3 3 2 3 4 5 6 5 3 1 1
3 2 2 1 1 1 1 1 1 1 1 1 1 1 1 1 2 2 2 3 3 3 3 3 3 3 3 3 3 2 3 4 3 4 5 7 7 5
Wind_Direction
262 262 262 261 256 255 257 258 272 290 291 287 288 283 289 291 290 288 284 288 293 293 290 289 291 290 288 287 285 282 281 279 273 269 266 266 265 266
268 264 266 264 260 256 253 257 254 265 279 284 286 291 295 301 300 298 297 301 298 297 299 296 296 297 295 291 287 284 278 274 268 265 265 267 266 265
276 274 272 269 263 260 258 257 255 256 274 285 284 288 288 293 299 300 299 294 296 300 300 302 305 304 300 298 295 290 282 275 269 268 269 267 265 267
275 278 280 278 269 265 262 260 258 255 265 282 290 287 283 284 290 295 299 299 300 303 307 308 310 310 308 306 304 302 293 279 267 264 267 269 268 268
275 275 278 278 275 272 270 267 264 264 260 271 283 285 286 291 294 295 298 300 304 307 310 315 315 317 320 317 313 313 309 295 280 269 277 274 278 281
278 275 276 272 270 272 272 265 264 265 265 266 275 281 286 286 285 295 304 307 310 312 316 319 321 324 324 322 322 332 334 337 341 334 333 331 321 311
284 279 277 277 272 271 275 271 262 260 265 265 271 283 288 289 284 289 299 311 310 309 316 324 326 324 326 331 346 15 17 30 46 44 42 37 32 19
284 285 282 279 277 279 281 281 272 265 265 263 269 272 280 283 288 294 297 307 306 320 328 323 328 327 333 351 19 31 33 43 47 44 45 44 40 44
279 282 287 287 289 282 283 284 279 272 265 259 261 264 272 276 276 282 287 293 293 304 320 315 326 328 335 6 27 32 40 41 46 47 44 42 41 44
278 276 279 283 284 286 285 287 283 277 271 268 259 267 273 270 263 264 269 289 303 308 316 307 318 325 338 355 23 40 44 46 46 46 43 40 37 34
293 292 288 281 289 295 293 292 296 299 303 295 290 288 288 289 286 286 285 291 305 313 327 313 324 333 344 4 29 42 46 46 44 43 42 40 34 26
302 304 305 304 302 303 293 288 294 299 306 313 315 312 303 304 309 278 251 256 293 302 319 345 337 347 5 24 34 33 38 41 40 40 40 40 32 27
307 313 315 320 320 318 314 298 291 299 307 308 311 319 324 332 341 343 331 241 256 277 285 325 325 15 58 6 15 26 34 33 31 36 37 35 32 31
308 311 314 321 324 324 319 313 315 316 311 313 325 331 337 345 352 359 12 27 20 311 309 341 96 89 84 52 15 11 16 19 27 30 27 26 26 27
316 319 322 324 326 327 326 323 326 329 322 324 319 317 324 331 349 16 28 36 38 28 25 41 68 74 74 78 45 11 5 9 24 29 23 20 16 14
314 317 323 326 324 321 325 335 338 327 315 311 302 317 340 356 6 27 33 26 47 36 31 40 48 68 79 71 70 34 20 13 6 11 12 15 14 19
313 316 326 328 333 331 335 343 349 346 350 349 351 7 8 11 21 32 39 40 61 53 42 42 47 61 66 62 58 40 35 28 13 2 10 18 14 16
322 320 322 321 319 324 336 345 354 0 355 353 9 11 18 28 43 39 43 64 75 68 63 52 50 51 49 40 33 51 41 29 6 5 12 26 13 4
324 314 308 308 311 323 334 339 341 347 347 351 11 27 37 49 63 60 58 72 73 74 70 52 42 66 68 49 13 22 37 17 12 13 13 20 6 344
317 307 304 303 309 323 330 341 351 358 7 6 27 44 61 67 71 71 72 83 87 87 72 49 43 50 74 85 29 4 11 22 23 15 5 6 0 345
320 314 314 313 318 326 330 350 359 3 8 10 51 58 65 74 76 79 86 88 86 87 82 56 39 57 78 74 65 29 11 17 24 19 2 7 1 6
321 318 320 317 319 330 358 14 21 25 23 25 64 68 64 72 85 89 95 98 86 87 84 69 58 51 55 74 74 45 16 11 21 29 29 33 26 16
322 321 323 327 333 6 39 32 29 33 30 43 79 79 70 77 86 92 96 97 96 96 92 79 60 56 61 76 78 57 34 16 13 24 24 25 41 51